TimeMDT,TemperatureF,Dew PointF,Humidity,Sea Level PressureIn,VisibilityMPH,Wind Direction,Wind SpeedMPH,Gust SpeedMPH,PrecipitationIn,Events,Conditions,WindDirDegrees,DateUTC
12:53 AM,52.0,37.9,59,30.01,10.0,SE,9.2,-,N/A,,Clear,140,2013-09-20 06:53:00
1:53 AM,51.1,39.9,66,30.01,10.0,ESE,8.1,-,N/A,,Clear,110,2013-09-20 07:53:00
2:53 AM,48.0,39.0,71,30.02,10.0,SSE,5.8,-,N/A,,Clear,150,2013-09-20 08:53:00
3:53 AM,46.9,39.9,77,30.03,10.0,SSE,8.1,-,N/A,,Clear,150,2013-09-20 09:53:00
4:53 AM,45.0,37.9,76,30.04,10.0,SSE,8.1,-,N/A,,Clear,160,2013-09-20 10:53:00
5:53 AM,45.0,37.9,76,30.05,10.0,ESE,8.1,-,N/A,,Clear,120,2013-09-20 11:53:00
6:53 AM,43.0,37.9,82,30.07,10.0,SE,6.9,-,N/A,,Clear,140,2013-09-20 12:53:00
7:53 AM,46.0,37.9,73,30.09,10.0,SSE,4.6,-,N/A,,Clear,150,2013-09-20 13:53:00
8:53 AM,52.0,36.0,54,30.10,10.0,SE,3.5,-,N/A,,Clear,140,2013-09-20 14:53:00
9:53 AM,59.0,34.0,39,30.08,10.0,Calm,Calm,-,N/A,,Clear,0,2013-09-20 15:53:00
10:53 AM,62.1,39.0,43,30.07,10.0,WNW,3.5,-,N/A,,Clear,300,2013-09-20 16:53:00
11:53 AM,66.0,39.9,38,30.04,10.0,NNW,6.9,-,N/A,,Clear,340,2013-09-20 17:53:00
12:53 PM,69.1,39.0,33,30.01,10.0,NW,5.8,-,N/A,,Clear,310,2013-09-20 18:53:00
1:53 PM,73.0,37.0,27,29.98,10.0,Variable,3.5,-,N/A,,Clear,0,2013-09-20 19:53:00
2:53 PM,75.9,28.9,18,29.95,10.0,North,4.6,-,N/A,,Clear,360,2013-09-20 20:53:00
3:53 PM,79.0,28.0,15,29.93,10.0,North,5.8,-,N/A,,Clear,360,2013-09-20 21:53:00
4:53 PM,78.1,28.9,17,29.92,10.0,North,5.8,-,N/A,,Clear,350,2013-09-20 22:53:00
5:53 PM,77.0,28.9,17,29.91,10.0,North,5.8,-,N/A,,Clear,350,2013-09-20 23:53:00
6:53 PM,73.9,33.1,22,29.92,10.0,NNW,4.6,-,N/A,,Clear,330,2013-09-21 00:53:00
7:53 PM,66.0,39.0,37,29.94,10.0,South,3.5,-,N/A,,Clear,180,2013-09-21 01:53:00
8:53 PM,64.0,39.0,40,29.96,10.0,SSE,8.1,-,N/A,,Clear,150,2013-09-21 02:53:00
9:53 PM,60.1,41.0,49,29.96,10.0,SE,12.7,-,N/A,,Clear,130,2013-09-21 03:53:00
10:53 PM,60.1,39.9,47,29.95,10.0,SE,12.7,-,N/A,,Clear,130,2013-09-21 04:53:00
11:53 PM,57.9,41.0,53,29.94,10.0,SSE,6.9,-,N/A,,Clear,160,2013-09-21 05:53:00